Regional Weather Roundup
Issued by NWS

Home | Current Version | Previous Version | Graphics & Text | Print | Product List | Glossary Off
Versions: 1 2 3 4 5 6 7 8 9 10 11 12 13 14 15 16 17 18 19 20 21 22 23 24 25 26 27 28 29 30 31 32 33 34 35 36 37 38 39 40 41 42 43 44 45 46 47 48 49 50

620
ASUS43 KTOP 211908
RWRKS

WEATHER ROUNDUP FOR KANSAS
NATIONAL WEATHER SERVICE GOODLAND KS
200 PM CDT THU MAY 21 2015

NOTE:  "FAIR" INDICATES FEW OR NO CLOUDS BELOW 12,000 FEET WITH NO
SIGNIFICANT WEATHER AND/OR OBSTRUCTIONS TO VISIBILITY.

KSZ001>006-013>018-027>032-041>047-212000-
NORTHWEST KANSAS

CITY           SKY/WX    TMP DP  RH WIND       PRES   REMARKS
GOODLAND       CLOUDY    56  42  59 S10       30.26F
HAYS           SUNNY     59  37  44 E7        30.29F
HILL CITY      SUNNY     62  40  44 SE9       30.28F
RUSSELL        SUNNY     60  42  51 S7        30.27F
$$

KSZ061>065-074>080-084>089-212000-
SOUTHWEST KANSAS

CITY           SKY/WX    TMP DP  RH WIND       PRES   REMARKS
DODGE CITY     PTSUNNY   58  40  51 SE5       30.29S
ELKHART          N/A     56  43  62 SE9         N/A
GARDEN CITY    CLOUDY    56  41  57 E6        30.27F
GREAT BEND     PTSUNNY   57  39  51 E8        30.28F
LIBERAL        CLOUDY    55  41  58 S3        30.29F
PRATT          MOSUNNY   59  39  47 NE3       30.29F
$$

KSZ066>073-081>083-090>101-212000-
SOUTHEAST KANSAS

CITY           SKY/WX    TMP DP  RH WIND       PRES   REMARKS
CHANUTE        MOSUNNY   61  45  55 VRB7      30.28F
COFFEYVILLE    CLOUDY    61  46  57 NE6       30.28F
HUTCHINSON     SUNNY     64  42  44 NE12      30.27F
MEDICINE LODGE   N/A     62  43  49 VRB7      30.27F
NEWTON         SUNNY     61  43  51 NE5       30.30F
PARSONS        PTSUNNY   62  46  55 NE6       30.29S
WICHITA INTL   PTSUNNY   63  43  48 E9        30.27F
WICHITA JABRA  MOSUNNY   62  45  53 MISG      30.27F
WICHITA MCCONL MOSUNNY   62  43  49 NE9       30.27F
WINFIELD       PTSUNNY   62  45  53 VRB7      30.28F
$$

KSZ007>012-019>026-033>040-048>060-102>105-212000-
NORTHEAST KANSAS

CITY           SKY/WX    TMP DP  RH WIND       PRES   REMARKS
CONCORDIA      SUNNY     63  40  42 SE9       30.28F
EMPORIA        MOSUNNY   62  41  46 NE12      30.29S
LAWRENCE       MOSUNNY   63  43  48 SW7       30.27F
MANHATTAN      SUNNY     65  42  43 VRB3      30.28F
MARYSVILLE     MOSUNNY   63  41  45 CALM      30.28R
OLATHE IND     SUNNY     63  44  50 N5        30.28S
OLATHE EXE     SUNNY     62  44  51 CALM      30.26F
SALINA         SUNNY     63  40  42 E6        30.29F
TOPEKA BILLARD MOSUNNY   64  43  46 S6        30.28S
TOPEKA FORBES  SUNNY     63  42  46 VRB5      30.27F
$$



USA.gov is the U.S. government's official web portal to all federal, state and local government web resources and services.